Flag for Cook Islands Weather past 2 weeks in Rarotonga, Cook Islands

Now
75 °F

Broken clouds.


Feels Like: 77 °F
Forecast: 73 / 79 °F
Wind: 8 mph from Southeast

Location: Rarotonga

Current Time: May 6, 2015 at 8:39:25 AM

Latest Report: May 6, 2015 at 8:00 AM


Visibility: N/A

Pressure: 29.92 "Hg

Humidity: 65%

Dew point: 63 °F

Location of RarotongaLocation

Historic Weather in Rarotonga — Graph

°F

Rarotonga temperature yesterday

Maximum temperature yesterday: 79 °F (at 11:00 AM)
Minimum temperature yesterday: 73 °F (at 12:00 AM)
Average temperature yesterday: 75 °F

Past Weeks' High & Low Weather Summary

 TemperatureHumidityPressure
High86 °F (Apr 21, 12:00 PM)100% (May 3, 11:00 PM)30.07 "Hg (May 3, 11:00 PM)
Low63 °F (Apr 28, 5:00 AM)58% (Apr 28, 11:00 AM)29.74 "Hg (Apr 21, 4:00 PM)
Average76 °F82%29.92 "Hg
* Reported Apr 21 7:00 AM — May 6 7:00 AM, Rarotonga, Weather by CustomWeather, © 2015

Note: Actual official high and low records may vary slightly from our data, if they occured in-between our weather recording intervals... More about our weather records

Advertising

Rarotonga weather history for previous 24 hours

 ConditionsComfort  
Time TempWeatherWind HumidityBarometerVisibility
7:00 AM
Wed, May 6
73 °FScattered clouds.9 mph69%29.92 "HgN/A
6:00 AM73 °FPartly cloudy.9 mph69%29.89 "HgN/A
5:00 AM73 °FPassing clouds.10 mph69%29.89 "HgN/A
4:00 AM73 °FPassing clouds.12 mph69%29.89 "HgN/A
3:00 AM73 °FPassing clouds.12 mph69%29.92 "HgN/A
2:00 AM73 °FPassing clouds.7 mph65%29.92 "HgN/A
1:00 AM73 °FPassing clouds.13 mph65%29.92 "HgN/A
12:00 AM73 °FPassing clouds.13 mph69%29.86 "HgN/A
11:00 PM
Tue, May 5
75 °FPassing clouds.13 mph65%29.95 "HgN/A
10:00 PM75 °FPassing clouds.13 mph65%29.95 "HgN/A
9:00 PM75 °FPassing clouds.13 mph69%29.95 "HgN/A
8:00 PM75 °FPassing clouds.13 mph69%29.92 "HgN/A
7:00 PM73 °FSprinkles. Passing clouds.13 mph94%29.92 "HgN/A
6:00 PM75 °FScattered clouds.9 mph74%29.92 "HgN/A
5:00 PM77 °FPassing clouds.16 mph69%29.89 "HgN/A
3:00 PM79 °FScattered clouds.9 mph70%29.89 "HgN/A
2:00 PM77 °FScattered clouds.14 mph74%29.92 "HgN/A
1:00 PM77 °FScattered showers. Partly sunny.15 mph74%29.92 "HgN/A
12:00 PM79 °FScattered clouds.10 mph70%29.95 "HgN/A
11:00 AM79 °FScattered clouds.10 mph70%29.98 "HgN/A
10:00 AM77 °FScattered clouds.12 mph74%29.98 "HgN/A
9:00 AM75 °FPartly sunny.10 mph74%29.98 "HgN/A
8:00 AM73 °FBroken clouds.12 mph83%29.95 "HgN/A
Weather by CustomWeather, © 2015

See weather overviewHow to use our weather pages